Regional Weather Roundup
Issued by NWS Cleveland, OH

Home | Current Version | Previous Version | Graphics & Text | Print | Product List | Glossary On
Versions: 1 2 3 4 5 6 7 8 9 10 11 12 13 14 15 16 17 18 19 20 21 22 23 24 25 26 27 28 29 30 31 32 33 34 35 36 37 38 39 40 41 42 43 44 45 46 47 48 49 50
000
ASUS41 KCLE 252112
RWRCLE
OHIO REGIONAL WEATHER ROUNDUP
NATIONAL WEATHER SERVICE WILMINGTON, OH
500 PM EDT SUN JUN 25 2017

NOTE: "FAIR" INDICATES FEW OR NO CLOUDS BELOW 12,000 FEET WITH NO
SIGNIFICANT WEATHER AND/OR OBSTRUCTIONS TO VISIBILITY.

OHZ001>008-015>018-024>027-034-035-043-044-252200-
   NORTHWEST OHIO

CITY           SKY/WX    TMP DP  RH WIND       PRES   REMARKS
DEFIANCE       FAIR      71  42  35 W15G21    30.07F
FINDLAY        PTSUNNY   70  45  40 W14G21    30.06F
TOLEDO EXPRESS CLOUDY    70  44  39 W14G25    30.04F
TOLEDO EXEC    FAIR      74  45  35 W22G29    30.05F
LIMA           PTSUNNY   71  47  42 W18G25    30.09F
$$

OHZ009>014-019>023-028>033-038-089-252200-
   NORTHEAST OHIO

CITY           SKY/WX    TMP DP  RH WIND       PRES   REMARKS
CLE-HOPKINS    FAIR      74  46  36 W13G31    30.06S
CLE-LAKEFRONT  FAIR      71  52  50 W18       30.04S
CUY CO. ARPT   MOSUNNY   72  52  49 NW17G29   30.05S
LORAIN-ELYRIA  PTSUNNY   69  42  37 NW15      30.06S
ASHTABULA      FAIR      69  46  43 W18G25    30.04S
AKRON-CANTON   FAIR      75  44  33 W21G28    30.05R
WOOSTER        FAIR      70  44  39 W18G28    30.07S
MANSFIELD      PTSUNNY   69  43  38 W15G22    30.08S
YOUNGSTOWN     FAIR      72  42  34 NW18G25   30.02S
$$

OHZ042-051>053-060>062-070>072-077>081-252200-
  SOUTHWEST OHIO

CITY           SKY/WX    TMP DP  RH WIND       PRES   REMARKS
CINC-COVINGTON FAIR      78  48  34 W18       30.10F
CINC-LUNKEN    FAIR      79  51  37 W20G25    30.10F
HAMILTON       FAIR      78  49  35 NW21G28   30.11F
DAYTON         FAIR      73  44  35 W20G30    30.12S
WRIGHT-PAT AFB MOSUNNY   74  45  34 W16G23    30.10S
DAYTON GENERAL FAIR      75  44  33 W10G23    30.10F
WILMINGTON     FAIR      75  47  36 W14G29    30.09F
$$

OHZ036-037-039>041-045>050-054>059-063>069-073>076-082>088-252200-
  CENTRAL AND SOUTHEAST OHIO

CITY           SKY/WX    TMP DP  RH WIND       PRES   REMARKS
COLUMBUS       FAIR      75  47  36 W20       30.08S
OSU AIRPORT    FAIR      73  48  41 NW16G26   30.09S
BOLTON FIELD   MOSUNNY   73  48  40 W14G24    30.09S
RICKENBACK AFB FAIR      75  47  36 W18G24    30.08S
NEWARK         FAIR      77  43  29 W22G29    30.07S
MARION         FAIR      71  41  33 W13G25    30.09F
LANCASTER      FAIR      74  49  41 W9G25     30.08F
ZANESVILLE     PTSUNNY   76  48  37 W14G24    30.06F
NEW PHILLY     FAIR      75  47  36 W18G25    30.06S
$$




USA.gov is the U.S. government's official web portal to all federal, state and local government web resources and services.